Terug naar catalogus

SL-14 DEB

ActiefPO
NORAD 19175·DEBRIS·🇷🇺 Russia

Gelanceerd Oct 26, 1978 vanaf Plesetsk Cosmodrome

Loading…

Volgende Passages (komende 24 uur)

TLE

VersSource: Space-Track

Epoch: Sep 14, 2026, 15:56 UTC

1 19175U 78100S   26257.66391404  .00003073  00000-0  43669-2 0  9997
2 19175  82.3469 144.0294 0277678 278.3880  95.6923 13.41734445772774

Volg SL-14 DEB in realtime met AllMySat

Download on the App Store